Date String (YYYY-MM-DD hh:mm:ss) UTC,Instrument flags,Ambient pressure (hPa),Sample flow (lpm),Bypass flow (lpm),Sample temperature (°C),Ambient temperature (°C),ASC tube jacket temperature (°C),LED temperature (°C),Box temperature (°C),Sample RH (%),Span deviation,Mass concentration (μg/m³),Mass concentration (μg/m³),Mass concentration (μg/m³)
DateTimeUTC,F1_M11,P_M11,Q1_M11,Q2_M11,T1_M11,T2_M11,T3_M11,T4_M11,T5_M11,U1_M11,ZSPAN_M11,X0_M11,X2_M11,X1_M11
2023-05-12 00:00:00,,0824.6,5.00,0.00,27.7,26.2,00.0,36.1,29.4,30.8,0000.0,0007.90,0003.51,0002.66
2023-05-12 00:01:00,,0824.7,5.00,0.00,27.7,26.2,00.0,36.1,29.4,30.7,0000.0,0007.77,0003.48,0002.62
2023-05-12 00:02:00,,0824.7,5.00,0.00,27.7,26.2,00.0,36.1,29.4,30.7,0000.0,0007.69,0003.44,0002.58
2023-05-12 00:03:00,,0824.7,5.00,0.00,27.7,26.2,00.0,36.1,29.4,30.6,0000.0,0007.58,0003.39,0002.52
2023-05-12 00:04:00,,0824.7,5.00,0.00,27.7,26.2,00.0,36.1,29.4,30.6,0000.0,0007.42,0003.33,0002.47
2023-05-12 00:05:00,,0824.7,5.00,0.00,27.8,26.2,00.0,36.1,29.4,30.6,0000.0,0006.31,0003.29,0002.47
2023-05-12 00:06:00,,0824.7,5.01,0.00,27.8,26.3,00.0,36.1,29.4,30.6,0000.0,0006.00,0003.30,0002.49
2023-05-12 00:07:00,,0824.8,5.00,0.00,27.8,26.3,00.0,36.1,29.4,30.6,0000.0,0005.96,0003.30,0002.50
2023-05-12 00:08:00,,0824.8,5.00,0.00,27.8,26.2,00.0,36.1,29.5,30.6,0000.0,0005.70,0003.30,0002.50
2023-05-12 00:09:00,,0824.8,4.99,0.00,27.8,26.2,00.0,36.1,29.5,30.6,0000.0,0005.71,0003.27,0002.49
2023-05-12 00:10:00,,0824.7,4.99,0.00,27.8,26.2,00.0,36.1,29.5,30.7,0000.0,0006.52,0003.30,0002.50
2023-05-12 00:11:00,,0824.8,5.00,0.00,27.8,26.2,00.0,36.1,29.5,30.8,0000.0,0007.07,0003.35,0002.54
2023-05-12 00:12:00,,0824.8,5.01,0.00,27.8,26.2,00.0,36.1,29.5,30.8,0000.0,0007.10,0003.40,0002.58
2023-05-12 00:13:00,,0824.8,5.00,0.00,27.8,26.2,00.0,36.1,29.5,30.9,0000.0,0007.15,0003.43,0002.60
2023-05-12 00:14:00,,0824.8,5.00,0.00,27.8,26.2,00.0,36.1,29.5,30.9,0000.0,0007.20,0003.45,0002.62
2023-05-12 00:15:00,,0824.8,5.00,0.00,27.8,26.2,00.0,36.1,29.5,30.9,0000.0,0007.32,0003.48,0002.62
2023-05-12 00:16:00,,0824.8,5.00,0.00,27.8,26.3,00.0,36.2,29.4,30.8,0000.0,0007.46,0003.52,0002.62
2023-05-12 00:17:00,,0824.7,5.00,0.00,27.8,26.3,00.0,36.2,29.5,30.8,0000.0,0007.51,0003.52,0002.60
2023-05-12 00:18:00,,0824.8,5.00,0.00,27.8,26.3,00.0,36.2,29.5,30.7,0000.0,0007.45,0003.49,0002.57
2023-05-12 00:19:00,,0824.8,5.00,0.00,27.8,26.3,00.0,36.2,29.5,30.7,0000.0,0007.29,0003.43,0002.55
2023-05-12 00:20:00,,0824.8,5.00,0.00,27.8,26.3,00.0,36.2,29.5,30.7,0000.0,0007.16,0003.43,0002.54
2023-05-12 00:21:00,,0824.8,5.00,0.00,27.8,26.3,00.0,36.2,29.5,30.7,0000.0,0006.65,0003.44,0002.51
2023-05-12 00:22:00,,0824.8,5.00,0.00,27.8,26.3,00.0,36.2,29.5,30.6,0000.0,0006.28,0003.41,0002.48
2023-05-12 00:23:00,,0824.7,5.00,0.00,27.8,26.3,00.0,36.2,29.5,30.6,0000.0,0006.01,0003.34,0002.42
2023-05-12 00:24:00,,0824.7,5.00,0.00,27.8,26.3,00.0,36.2,29.5,30.6,0000.0,0006.07,0003.31,0002.36
2023-05-12 00:25:00,,0824.7,5.00,0.00,27.8,26.2,00.0,36.2,29.5,30.5,0000.0,0005.98,0003.26,0002.33
2023-05-12 00:26:00,,0824.7,5.00,0.00,27.8,26.2,00.0,36.2,29.5,30.5,0000.0,0006.02,0003.25,0002.30
2023-05-12 00:27:00,,0824.8,5.00,0.00,27.8,26.2,00.0,36.2,29.5,30.4,0000.0,0006.23,0003.28,0002.29
2023-05-12 00:28:00,,0824.8,5.00,0.00,27.8,26.2,00.0,36.2,29.5,30.4,0000.0,0006.12,0003.26,0002.27
2023-05-12 00:29:00,,0824.8,5.01,0.00,27.8,26.2,00.0,36.2,29.5,30.4,0000.0,0005.94,0003.22,0002.24
2023-05-12 00:30:00,,0824.8,5.00,0.00,27.8,26.2,00.0,36.2,29.5,30.4,0000.0,0006.02,0003.24,0002.25
2023-05-12 00:31:00,,0824.8,5.01,0.00,27.8,26.2,00.0,36.2,29.5,30.4,0000.0,0006.10,0003.25,0002.24
2023-05-12 00:32:00,,0824.8,5.00,0.00,27.8,26.2,00.0,36.2,29.5,30.3,0000.0,0005.92,0003.22,0002.23
2023-05-12 00:33:00,,0824.8,4.99,0.00,27.8,26.2,00.0,36.2,29.5,30.3,0000.0,0005.63,0003.18,0002.24
2023-05-12 00:34:00,,0824.8,4.99,0.00,27.8,26.2,00.0,36.2,29.5,30.3,0000.0,0005.42,0003.15,0002.24
2023-05-12 00:35:00,,0824.9,5.00,0.00,27.8,26.2,00.0,36.2,29.5,30.3,0000.0,0005.17,0003.14,0002.26
2023-05-12 00:36:00,,0824.8,5.00,0.00,27.8,26.2,00.0,36.2,29.5,30.3,0000.0,0005.08,0003.13,0002.27
2023-05-12 00:37:00,,0824.9,5.00,0.00,27.8,26.2,00.0,36.2,29.5,30.4,0000.0,0005.11,0003.15,0002.28
2023-05-12 00:38:00,,0824.8,5.00,0.00,27.8,26.2,00.0,36.2,29.5,30.4,0000.0,0004.91,0003.11,0002.29
2023-05-12 00:39:00,,0824.9,5.01,0.00,27.8,26.2,00.0,36.2,29.5,30.5,0000.0,0004.99,0003.12,0002.30
2023-05-12 00:40:00,,0824.9,5.00,0.00,27.8,26.3,00.0,36.2,29.5,30.5,0000.0,0005.07,0003.14,0002.33
2023-05-12 00:41:00,,0824.9,5.01,0.00,27.8,26.3,00.0,36.2,29.5,30.6,0000.0,0005.03,0003.15,0002.36
2023-05-12 00:42:00,,0824.9,5.00,0.00,27.8,26.3,00.0,36.2,29.5,30.6,0000.0,0005.04,0003.17,0002.37
2023-05-12 00:43:00,,0824.9,5.00,0.00,27.8,26.3,00.0,36.2,29.5,30.6,0000.0,0005.14,0003.20,0002.40
2023-05-12 00:44:00,,0824.9,5.00,0.00,27.8,26.3,00.0,36.2,29.5,30.6,0000.0,0005.30,0003.25,0002.43
2023-05-12 00:45:00,,0824.9,5.00,0.00,27.8,26.3,00.0,36.2,29.5,30.6,0000.0,0005.58,0003.32,0002.48
2023-05-12 00:46:00,,0824.9,5.00,0.00,27.8,26.3,00.0,36.2,29.5,30.6,0000.0,0005.75,0003.36,0002.48
2023-05-12 00:47:00,,0824.9,5.00,0.00,27.8,26.3,00.0,36.2,29.5,30.7,0000.0,0005.76,0003.36,0002.49
2023-05-12 00:48:00,,0824.9,5.00,0.00,27.8,26.3,00.0,36.2,29.5,30.7,0000.0,0005.73,0003.35,0002.50
2023-05-12 00:49:00,,0824.9,5.01,0.00,27.8,26.3,00.0,36.2,29.5,30.7,0000.0,0005.68,0003.35,0002.50
2023-05-12 00:50:00,,0824.9,5.00,0.00,27.8,26.3,00.0,36.2,29.5,30.7,0000.0,0005.72,0003.37,0002.51
2023-05-12 00:51:00,,0824.9,5.01,0.00,27.8,26.3,00.0,36.2,29.5,30.7,0000.0,0005.66,0003.34,0002.49
2023-05-12 00:52:00,,0824.9,5.00,0.00,27.8,26.3,00.0,36.2,29.5,30.7,0000.0,0005.68,0003.34,0002.45
2023-05-12 00:53:00,,0824.9,4.99,0.00,27.8,26.3,00.0,36.2,29.5,30.7,0000.0,0005.50,0003.28,0002.41
2023-05-12 00:54:00,,0824.9,4.99,0.00,27.8,26.3,00.0,36.2,29.5,30.7,0000.0,0005.30,0003.22,0002.37
2023-05-12 00:55:00,,0824.9,5.00,0.00,27.8,26.3,00.0,36.2,29.5,30.7,0000.0,0005.27,0003.20,0002.35
2023-05-12 00:56:00,,0824.8,4.99,0.00,27.8,26.3,00.0,36.2,29.5,30.7,0000.0,0005.12,0003.15,0002.31
2023-05-12 00:57:00,,0824.8,5.00,0.00,27.8,26.3,00.0,36.2,29.5,30.7,0000.0,0004.94,0003.12,0002.31
2023-05-12 00:58:00,,0824.9,5.01,0.00,27.8,26.3,00.0,36.2,29.5,30.7,0000.0,0004.87,0003.11,0002.32
2023-05-12 00:59:00,,0824.9,5.01,0.00,27.8,26.3,00.0,36.2,29.5,30.7,0000.0,0004.78,0003.09,0002.31
